Overview Statistics Trail Chart Weather Telemetry Raw packets
 

This is the latest recevied weather packets stored in our database for station/object K7FLA. If no packets are shown the sender has not sent any weather packets the latest 10 day(s).

<< 85 86 87 88 89 90 91 >>
Time Temp. Humidity Pressure Rain* Wind** Luminosity Snow
1788040333 37.78° C 26% 1094 hPa 0 mm - 608 W/m² -
1788040033 37.78° C 25% 1094.2 hPa 0 mm - 612 W/m² -
1788039729 37.78° C 25% 1094 hPa 0 mm - 632 W/m² -
1788039423 37.78° C 25% 1094 hPa 0 mm - 641 W/m² -
1788039119 37.78° C 25% 1094.2 hPa 0 mm - 647 W/m² -
1788038815 37.78° C 26% 1094.3 hPa 0 mm - 659 W/m² -
1788038515 37.78° C 26% 1094.2 hPa 0 mm - 672 W/m² -
1788038214 37.78° C 25% 1094.6 hPa 0 mm - 683 W/m² -
1788037908 37.78° C 25% 1094.3 hPa 0 mm - 689 W/m² -
1788037603 37.78° C 27% 1094.7 hPa 0 mm - 700 W/m² -
1788037299 37.78° C 26% 1094.8 hPa 0 mm - 709 W/m² -
1788036998 37.78° C 25% 1094.7 hPa 0 mm - 719 W/m² -
1788036695 37.78° C 25% 1094.7 hPa 0 mm - 728 W/m² -
1788036390 37.22° C 25% 1094.9 hPa 0 mm - 733 W/m² -
1788036085 37.22° C 24% 1094.7 hPa 0 mm - 739 W/m² -
1788035784 37.78° C 25% 1094.9 hPa 0 mm - 749 W/m² -
1788035480 37.78° C 26% 1094.9 hPa 0 mm - 757 W/m² -
1788035175 37.78° C 25% 1094.9 hPa 0 mm - 761 W/m² -
1788034871 37.78° C 25% 1095.1 hPa 0 mm - 766 W/m² -
1788034567 37.78° C 25% 1095 hPa 0 mm - 771 W/m² -
1788034263 37.78° C 26% 1095.1 hPa 0 mm - 774 W/m² -
1788033962 37.78° C 25% 1095.3 hPa 0 mm - 778 W/m² -
1788033657 37.78° C 27% 1095.2 hPa 0 mm - 783 W/m² -
1788033356 37.78° C 27% 1095.3 hPa 0 mm - 786 W/m² -
1788033052 37.78° C 28% 1095.3 hPa 0 mm - 788 W/m² -

* Rain latest hour (hover to see other rain measurements)
** Current wind speed in m/s (hover to see current wind gust speed)